Location: Unspecified
(0.0000°N, 0.0000°E)
Time: 23:19:35
(UTC+00:00)

Envisat - Pass Details

Date: 15 February 2020
Orbit: 764 x 766 km, 98.1° (Epoch: 25 February)

Event Time Altitude Azimuth Distance (km) Brightness Sun altitude
Rises 05:06:04 0° 50° (NE) 3,216 6.8 -16.6°
Reaches altitude 10° 05:09:49 10° 79° (ENE) 2,295 6.5 -15.7°
Maximum altitude 05:11:51 12° 103° (ESE) 2,132 6.6 -15.2°
Drops below altitude 10° 05:13:54 10° 127° (SE) 2,299 6.6 -14.7°
Sets 05:17:39 0° 155° (SSE) 3,228 6.8 -13.8°
